CASSIOPE

Last updated on Thu Jul 03 2025 00:03:31 GMT+0000 (Coordinated Universal Time)

1 39265U 13055A 25183.59524580 .00020652 -78780-6 31757-3 0 9994 2 39265 80.9413 122.4390 0389119 138.3305 224.8271 14.98680523614842
UTC large
Height (km)
Speed (km/s)
/
Latitude / Longitude
Inclination (degrees)
Orbital Period (minutes)
Azimuth
Elevation
Range (km)
Doppler Factor

Next 0 passes for location: London (51.5072 / 0.1276)

Sorry there are no passes over London.